GW7282 Weather Reports


time (UTC)temp
C
wind
direction
speed
KPH
gust
KPH
rain 1hr
cm
rain 24hr
cm
rain mn
cm
humidity
%
barometer
mb
20260506013029 25 345 4.8 19.3 0.00 0.00 0.00 30 1007.8
20260506011532 25 329 8.0 20.9 0.00 0.00 0.00 30 1007.7
20260506010030 25 319 4.8 17.7 0.00 0.00 0.00 31 1007.7
20260506004536 25 343 9.7 19.3 0.00 0.00 0.00 26 1007.6
20260506003038 25 346 8.0 19.3 0.00 0.00 0.00 27 1007.4
20260506001530 25 234 1.6 14.5 0.00 0.00 0.00 28 1007.3
20260506000030 26 285 4.8 24.1 0.00 0.00 0.00 25 1007.3
20260505234551 27 304 6.4 19.3 0.00 0.00 0.00 25 1007.4
20260505233031 27 313 11.3 24.1 0.00 0.00 0.00 24 1007.4
20260505231533 27 352 11.3 22.5 0.00 0.00 0.00 24 1007.4
20260505230039 27 263 8.0 25.7 0.00 0.00 0.00 25 1007.5
20260505224529 27 288 11.3 24.1 0.00 0.00 0.00 22 1007.6
20260505223030 27 5 8.0 20.9 0.00 0.00 0.00 25 1007.6
20260505221530 27 320 9.7 19.3 0.00 0.00 0.00 23 1007.7
20260505220038 27 273 4.8 14.5 0.00 0.00 0.00 26 1007.8
20260505214538 26 306 3.2 11.3 0.00 0.00 0.00 24 1008.1
20260505213030 25 57 1.6 9.7 0.00 0.00 0.00 25 1008.3
20260505211530 25 338 8.0 19.3 0.00 0.00 0.00 27 1008.5
20260505210030 25 44 0.0 11.3 0.00 0.00 0.00 23 1008.7
20260505204530 26 273 1.6 14.5 0.00 0.00 0.00 21 1008.7
20260505203029 26 338 3.2 12.9 0.00 0.00 0.00 24 1008.8
20260505201531 26 307 1.6 14.5 0.00 0.00 0.00 26 1008.8
20260505200029 26 263 3.2 14.5 0.00 0.00 0.00 25 1009.0
20260505194534 26 96 4.8 16.1 0.00 0.00 0.00 26 1009.1
20260505193038 25 44 6.4 16.1 0.00 0.00 0.00 26 1009.2
20260505191544 26 34 6.4 17.7 0.00 0.00 0.00 27 1009.4
20260505190032 26 62 3.2 9.7 0.00 0.00 0.00 27 1009.4
20260505184528 25 72 6.4 20.9 0.00 0.00 0.00 25 1009.3
20260505183030 25 23 4.8 19.3 0.00 0.00 0.00 27 1009.5
20260505181529 25 113 6.4 20.9 0.00 0.00 0.00 26 1009.6
20260505180044 25 60 8.0 24.1 0.00 0.00 0.00 26 1009.7
20260505174538 25 77 9.7 19.3 0.00 0.00 0.00 27 1009.6
20260505173028 24 17 11.3 27.4 0.00 0.00 0.00 27 1009.7
20260505171533 24 5 3.2 12.9 0.00 0.00 0.00 29 1009.8
20260505170031 23 190 4.8 12.9 0.00 0.00 0.00 38 1009.7
20260505164527 22 0 1.6 6.4 0.00 0.00 0.00 39 1009.7
20260505163028 22 0 3.2 9.7 0.00 0.00 0.00 40 1009.7
20260505161529 22 222 0.0 6.4 0.00 0.00 0.00 42 1009.6
20260505153031 21 163 1.6 9.7 0.00 0.00 0.00 43 1009.4
20260505151537 21 166 0.0 6.4 0.00 0.00 0.00 42 1009.3
20260505124529 14 5 3.2 6.4 0.00 0.00 0.00 54 1007.4
20260505123051 13 10 1.6 6.4 0.00 0.00 0.00 56 1007.3
20260505121528 13 360 1.6 3.2 0.00 0.00 0.00 56 1006.9
20260505120031 13 5 1.6 3.2 0.00 0.00 0.00 56 1006.8
20260505114530 13 57 0.0 3.2 0.00 0.00 0.00 55 1006.8
20260505113036 14 15 0.0 3.2 0.00 0.00 0.00 54 1006.6
20260505111548 14 348 1.6 4.8 0.00 0.00 0.00 53 1006.5
20260505101534 17 78 0.0 4.8 0.00 0.00 0.00 45 1006.1
20260505100034 17 0 1.6 9.7 0.00 0.00 0.00 43 1005.9
20260505094531 17 360 4.8 12.9 0.00 0.00 0.00 44 1005.8
20260505093031 17 12 4.8 14.5 0.00 0.00 0.00 43 1005.8
20260505091533 17 351 6.4 12.9 0.00 0.00 0.00 43 1005.8
20260505090037 17 320 4.8 11.3 0.00 0.00 0.00 45 1005.7
20260505084532 17 46 1.6 9.7 0.00 0.00 0.00 43 1005.8
20260505083035 18 0 0.0 4.8 0.00 0.00 0.00 39 1005.8
20260505081533 19 0 1.6 4.8 0.00 0.00 0.00 38 1005.9
20260505080035 20 306 1.6 4.8 0.00 0.00 0.00 35 1005.8
20260505074529 20 327 4.8 16.1 0.00 0.00 0.00 34 1005.7
20260505073033 20 13 6.4 19.3 0.00 0.00 0.00 33 1005.5
20260505071536 21 348 8.0 24.1 0.00 0.00 0.00 31 1005.5
20260505070033 20 360 9.7 30.6 0.00 0.00 0.00 31 1005.3
20260505064543 20 41 9.7 27.4 0.00 0.00 0.00 31 1005.2
20260505063030 21 347 12.9 24.1 0.00 0.00 0.00 31 1005.1
20260505061536 21 19 12.9 25.7 0.00 0.00 0.00 30 1005.2
20260505060031 21 350 14.5 22.5 0.00 0.00 0.00 29 1005.1
20260505054531 20 352 6.4 19.3 0.00 0.00 0.00 29 1005.1
20260505053029 20 9 4.8 14.5 0.00 0.00 0.00 30 1005.0
20260505051528 21 350 8.0 20.9 0.00 0.00 0.00 28 1005.0
20260505041533 22 352 8.0 19.3 0.00 0.00 0.00 29 1004.6
20260505040031 22 348 8.0 16.1 0.00 0.00 0.00 29 1004.3
20260505034533 22 329 8.0 16.1 0.00 0.00 0.00 31 1004.2
20260505033031 22 350 9.7 17.7 0.00 0.00 0.00 32 1004.1
20260505031530 22 346 9.7 16.1 0.00 0.00 0.00 32 1003.8
20260505030028 23 5 8.0 16.1 0.00 0.00 0.00 32 1003.6
20260505024539 24 344 9.7 17.7 0.00 0.00 0.00 30 1003.5
20260505023027 25 352 6.4 19.3 0.00 0.00 0.00 29 1003.3
20260505021537 26 316 11.3 17.7 0.00 0.00 0.00 27 1003.3
20260505020028 27 331 4.8 17.7 0.00 0.00 0.00 26 1003.1
20260505014533 27 319 8.0 16.1 0.00 0.00 0.00 24 1003.2